DB0TGO-13 Weather Reports


time (UTC)temp
C
wind
direction
speed
KPH
gust
KPH
rain 1hr
cm
rain 24hr
cm
rain mn
cm
humidity
%
barometer
mb
20260905041509 15 260 17.7 0.0 0.00 0.00 0.00 81 1007.0
20260905040009 15 260 17.7 0.0 0.00 0.00 0.00 81 1007.0
20260905034510 15 260 14.5 0.0 0.00 0.00 0.00 81 1006.6
20260905033010 15 260 14.5 0.0 0.00 0.00 0.00 81 1006.6
20260905031510 15 260 14.5 0.0 0.00 0.00 0.00 82 1006.4
20260905030008 15 260 16.1 0.0 0.00 0.00 0.00 82 1006.4
20260904204510 16 250 17.7 0.0 0.00 0.00 0.00 90 1002.7
20260904203009 16 260 16.1 0.0 0.00 0.00 0.00 90 1002.7
20260904201510 16 260 16.1 0.0 0.00 0.00 0.00 90 1002.5
20260904200009 16 260 16.1 0.0 0.00 0.00 0.00 90 1002.5
20260904193009 16 240 17.7 0.0 0.00 0.00 0.00 91 1002.7
20260904191509 16 240 17.7 0.0 0.00 0.00 0.00 91 1001.8
20260904190009 16 250 16.1 0.0 0.00 0.00 0.00 91 1001.8
20260904184509 17 230 16.1 0.0 0.00 0.00 0.00 87 1001.7
20260904183010 17 230 16.1 0.0 0.00 0.00 0.00 87 1001.7
20260904181509 17 240 19.3 0.0 0.00 0.00 0.00 84 1001.5
20260904180009 17 240 19.3 0.0 0.00 0.00 0.00 84 1001.5
20260904174509 18 240 19.3 0.0 0.00 0.00 0.00 80 1001.3
20260904173010 18 260 19.3 0.0 0.00 0.00 0.00 80 1001.3
20260904171509 18 260 19.3 0.0 0.00 0.00 0.00 82 1001.3
20260904170010 18 260 20.9 0.0 0.00 0.00 0.00 82 1001.3
20260904164509 19 260 20.9 0.0 0.00 0.00 0.00 89 1001.1
20260904163010 19 270 20.9 0.0 0.00 0.00 0.00 89 1001.1
20260904161510 20 270 20.9 0.0 0.00 0.00 0.00 87 1000.9
20260904160009 20 280 25.7 0.0 0.00 0.00 0.00 87 1000.9
20260904154511 19 280 25.7 0.0 0.00 0.00 0.00 91 1000.1
20260904153009 19 280 35.4 0.0 0.00 0.00 0.00 91 1000.1
20260904151509 25 280 35.4 0.0 0.00 0.00 0.00 55 998.7
20260904150010 25 250 24.1 0.0 0.00 0.00 0.00 55 998.7
20260904144510 25 250 24.1 0.0 0.00 0.00 0.00 57 998.9
20260904143009 25 240 25.7 0.0 0.00 0.00 0.00 57 998.9
20260904141510 25 240 25.7 0.0 0.00 0.00 0.00 59 999.2
20260904140010 25 240 25.7 0.0 0.00 0.00 0.00 59 999.2
20260904134509 23 240 25.7 0.0 0.00 0.00 0.00 61 999.8
20260904133010 23 240 22.5 0.0 0.00 0.00 0.00 61 999.8
20260904131509 23 230 17.7 0.0 0.00 0.00 0.00 62 1000.4
20260904130009 23 230 17.7 0.0 0.00 0.00 0.00 62 1000.4
20260904124509 23 230 17.7 0.0 0.00 0.00 0.00 62 1000.7
20260904123010 23 230 19.3 0.0 0.00 0.00 0.00 62 1000.7
20260904121509 23 230 19.3 0.0 0.00 0.00 0.00 63 1001.4
20260904120010 23 230 19.3 0.0 0.00 0.00 0.00 63 1001.4
20260904114510 23 230 19.3 0.0 0.00 0.00 0.00 62 1002.0
20260904113009 23 230 17.7 0.0 0.00 0.00 0.00 62 1002.0
20260904111509 22 230 17.7 0.0 0.00 0.00 0.00 65 1002.6
20260904110010 22 230 17.7 0.0 0.00 0.00 0.00 65 1002.6
20260904104510 22 230 17.7 0.0 0.00 0.00 0.00 67 1003.0
20260904103010 22 230 19.3 0.0 0.00 0.00 0.00 67 1003.0
20260904101510 22 230 19.3 0.0 0.00 0.00 0.00 67 1003.3
20260904100011 22 230 20.9 0.0 0.00 0.00 0.00 67 1003.3
20260904094511 22 230 20.9 0.0 0.00 0.00 0.00 67 1003.6
20260904093009 22 240 19.3 0.0 0.00 0.00 0.00 67 1003.6
20260904091510 21 240 19.3 0.0 0.00 0.00 0.00 71 1004.1
20260904090009 21 220 14.5 0.0 0.00 0.00 0.00 71 1004.1
20260904084510 20 220 12.9 0.0 0.00 0.00 0.00 74 1004.3
20260904083009 20 220 12.9 0.0 0.00 0.00 0.00 74 1004.3
20260904081508 18 220 12.9 0.0 0.00 0.00 0.00 77 1005.6
20260904073010 18 210 9.7 0.0 0.00 0.00 0.00 77 1005.6
20260904071509 18 210 9.7 0.0 0.00 0.00 0.00 77 1005.6
20260904070012 18 210 9.7 0.0 0.00 0.00 0.00 77 1005.6
20260904064509 18 210 9.7 0.0 0.00 0.00 0.00 78 1005.9
20260904063010 18 210 11.3 0.0 0.00 0.00 0.00 78 1005.9
20260904061510 18 210 11.3 0.0 0.00 0.00 0.00 79 1006.5
20260904060010 18 220 9.7 0.0 0.00 0.00 0.00 79 1006.5
20260904054510 18 220 9.7 0.0 0.00 0.00 0.00 81 1006.6
20260904053010 18 220 9.7 0.0 0.00 0.00 0.00 81 1006.6
20260904051509 18 210 11.3 0.0 0.00 0.00 0.00 80 1006.5
20260904050009 18 210 11.3 0.0 0.00 0.00 0.00 80 1006.5
20260904044509 17 210 8.0 0.0 0.00 0.00 0.00 80 1007.1
20260904043010 17 210 8.0 0.0 0.00 0.00 0.00 80 1007.1